FHA12E LYBE-EDDS

Flight info

Callsign FHA12E
Flight time 1h 23m
Altitude 34000
Route TISAK4H TISAK L610 TONDO DCT ARSIN DCT SITNI DCT SBG DCT TITIG L173 MAH/N0392F240 L173 DODIL T127 TEKSI TEKSI1W
Aircraft A321/M-SDE3FGHIRWY/LB1

Departure

Time 2026-05-05 14:46
Airport Belgrade Nikola Tesla Airport (LYBE)

Arrival

Time 2026-05-05 16:10
Airport Stuttgart Airport (EDDS)
Time Latitude Longitude Altitude Speed Heading
2026-05-05 14:20 44.81929 20.29288 308 ft 0 kts 302°
2026-05-05 14:20 44.81930 20.29288 307 ft 0 kts 302°
2026-05-05 14:22 44.81929 20.29288 307 ft 0 kts 302°
2026-05-05 14:38 44.81928 20.29292 308 ft 3 kts 302°
2026-05-05 14:38 44.81916 20.29319 306 ft 2 kts 302°
2026-05-05 14:38 44.81901 20.29342 307 ft 4 kts 352°
2026-05-05 14:38 44.81880 20.29334 306 ft 4 kts 32°
2026-05-05 14:39 44.81868 20.29324 307 ft 0 kts 32°
2026-05-05 14:42 44.81869 20.29325 306 ft 1 kts 32°
2026-05-05 14:42 44.81882 20.29337 308 ft 4 kts 32°
2026-05-05 14:42 44.81913 20.29363 307 ft 8 kts 32°
2026-05-05 14:43 44.81969 20.29412 309 ft 11 kts 32°
2026-05-05 14:43 44.82036 20.29471 308 ft 12 kts 32°
2026-05-05 14:43 44.82107 20.29529 307 ft 11 kts 13°
2026-05-05 14:43 44.82169 20.29466 311 ft 13 kts 305°
2026-05-05 14:44 44.82221 20.29349 308 ft 15 kts 301°
2026-05-05 14:44 44.82278 20.29223 308 ft 16 kts 302°
2026-05-05 14:44 44.82337 20.29092 308 ft 17 kts 302°
2026-05-05 14:44 44.82398 20.28948 307 ft 17 kts 301°
2026-05-05 14:45 44.82490 20.28859 307 ft 17 kts 359°
2026-05-05 14:45 44.82586 20.28944 307 ft 17 kts 53°
2026-05-05 14:45 44.82621 20.29106 306 ft 18 kts 88°
2026-05-05 14:45 44.82562 20.29296 309 ft 39 kts 122°
2026-05-05 14:46 44.82289 20.29915 309 ft 108 kts 122°
2026-05-05 14:46 44.81785 20.31045 307 ft 162 kts 122°
2026-05-05 14:46 44.81152 20.32477 650 ft 176 kts 120°
2026-05-05 14:46 44.80904 20.34123 1284 ft 176 kts 80°
2026-05-05 14:47 44.81500 20.35602 1895 ft 179 kts 38°
2026-05-05 14:47 44.82667 20.36159 2390 ft 183 kts 357°
2026-05-05 14:47 44.83528 20.36022 2565 ft 194 kts 351°
2026-05-05 14:47 44.85429 20.35611 2880 ft 214 kts 350°
2026-05-05 14:48 44.86402 20.35391 3217 ft 214 kts 350°
2026-05-05 14:48 44.87901 20.35049 3465 ft 227 kts 350°
2026-05-05 14:48 44.90107 20.34544 3761 ft 253 kts 350°
2026-05-05 14:48 44.91873 20.34144 4149 ft 266 kts 350°
2026-05-05 14:49 44.93733 20.33726 4726 ft 274 kts 350°
2026-05-05 14:49 44.95625 20.33303 5431 ft 276 kts 349°
2026-05-05 14:49 44.97527 20.32878 6186 ft 278 kts 349°
2026-05-05 14:49 44.99448 20.32446 6883 ft 281 kts 348°
2026-05-05 14:50 45.00730 20.32155 7301 ft 283 kts 349°
2026-05-05 14:50 45.02686 20.31713 7972 ft 286 kts 349°
2026-05-05 14:50 45.04666 20.31266 8656 ft 290 kts 349°
2026-05-05 14:50 45.07333 20.30664 9491 ft 296 kts 349°
2026-05-05 14:51 45.09388 20.30200 10100 ft 303 kts 349°
2026-05-05 14:51 45.10825 20.29872 10222 ft 318 kts 349°
2026-05-05 14:51 45.13052 20.29363 10349 ft 339 kts 349°
2026-05-05 14:51 45.15436 20.28819 10669 ft 352 kts 349°
2026-05-05 14:52 45.17871 20.28268 11246 ft 357 kts 350°
2026-05-05 14:52 45.20333 20.27711 11860 ft 360 kts 350°
2026-05-05 14:52 45.23633 20.26966 12668 ft 365 kts 350°
2026-05-05 14:52 45.25328 20.26582 13078 ft 367 kts 350°
2026-05-05 14:53 45.28687 20.25817 13868 ft 371 kts 350°
2026-05-05 14:53 45.30385 20.25430 14234 ft 373 kts 350°
2026-05-05 14:53 45.32955 20.24844 14815 ft 376 kts 350°
2026-05-05 14:53 45.35546 20.24252 15400 ft 378 kts 350°
2026-05-05 14:54 45.38151 20.23650 15984 ft 380 kts 349°
2026-05-05 14:54 45.40704 20.22657 16543 ft 382 kts 337°
2026-05-05 14:54 45.43082 20.20969 17102 ft 383 kts 326°
2026-05-05 14:54 45.45187 20.18655 17658 ft 384 kts 315°
2026-05-05 14:55 45.47744 20.15132 18337 ft 388 kts 314°
2026-05-05 14:55 45.49058 20.13317 18661 ft 390 kts 314°
2026-05-05 14:55 45.50985 20.10657 19156 ft 392 kts 314°
2026-05-05 14:55 45.52948 20.07949 19674 ft 394 kts 314°
2026-05-05 14:56 45.54923 20.05227 20192 ft 395 kts 314°
2026-05-05 14:56 45.56904 20.02497 20712 ft 397 kts 314°
2026-05-05 14:56 45.58895 19.99749 21224 ft 399 kts 314°
2026-05-05 14:56 45.60894 19.96983 21713 ft 401 kts 314°
2026-05-05 14:57 45.62899 19.94204 22228 ft 403 kts 314°
2026-05-05 14:57 45.64884 19.91449 22706 ft 404 kts 314°
2026-05-05 14:57 45.66909 19.88638 23125 ft 407 kts 314°
2026-05-05 14:57 45.68948 19.85808 23559 ft 409 kts 314°
2026-05-05 14:58 45.70995 19.82961 23936 ft 411 kts 314°
2026-05-05 14:58 45.73048 19.80104 24322 ft 412 kts 314°
2026-05-05 14:58 45.75105 19.77237 24705 ft 414 kts 314°
2026-05-05 14:58 45.77167 19.74358 25085 ft 415 kts 314°
2026-05-05 14:59 45.79235 19.71464 25462 ft 416 kts 314°
2026-05-05 14:59 45.81309 19.68562 25833 ft 417 kts 314°
2026-05-05 14:59 45.83358 19.65696 26197 ft 418 kts 314°
2026-05-05 14:59 45.85444 19.62777 26564 ft 420 kts 314°
2026-05-05 15:00 45.87536 19.59845 26921 ft 421 kts 314°
2026-05-05 15:00 45.89628 19.56904 27283 ft 422 kts 314°
2026-05-05 15:00 45.91731 19.53939 27561 ft 425 kts 314°
2026-05-05 15:00 45.93848 19.50952 27866 ft 428 kts 314°
2026-05-05 15:01 45.95972 19.47950 28184 ft 429 kts 314°
2026-05-05 15:01 45.98107 19.44934 28501 ft 431 kts 314°
2026-05-05 15:01 46.00222 19.41951 28807 ft 433 kts 314°
2026-05-05 15:01 46.02375 19.38911 29115 ft 434 kts 314°
2026-05-05 15:02 46.04529 19.35855 29445 ft 435 kts 313°
2026-05-05 15:02 46.06620 19.32717 29869 ft 434 kts 311°
2026-05-05 15:02 46.08639 19.29488 30192 ft 434 kts 310°
2026-05-05 15:02 46.10620 19.26191 30477 ft 435 kts 309°
2026-05-05 15:03 46.12581 19.22876 30832 ft 434 kts 309°
2026-05-05 15:03 46.14539 19.19565 31186 ft 433 kts 309°
2026-05-05 15:03 46.16500 19.16277 31541 ft 432 kts 309°
2026-05-05 15:03 46.18472 19.13003 31875 ft 432 kts 309°
2026-05-05 15:04 46.20432 19.09779 32118 ft 434 kts 310°
2026-05-05 15:04 46.22428 19.06503 32418 ft 434 kts 309°
2026-05-05 15:04 46.24417 19.03234 32809 ft 432 kts 309°
2026-05-05 15:04 46.26393 18.99979 33178 ft 430 kts 309°
2026-05-05 15:05 46.30328 18.93480 33846 ft 429 kts 309°
2026-05-05 15:05 46.32286 18.90230 33922 ft 426 kts 309°
2026-05-05 15:06 46.36124 18.83834 33919 ft 422 kts 309°
2026-05-05 15:06 46.39980 18.77398 33931 ft 426 kts 308°
2026-05-05 15:07 46.43886 18.70869 33915 ft 430 kts 308°
2026-05-05 15:07 46.47810 18.64307 33931 ft 431 kts 308°
2026-05-05 15:08 46.51736 18.57731 33930 ft 432 kts 308°
2026-05-05 15:08 46.55642 18.51171 33929 ft 433 kts 308°
2026-05-05 15:09 46.59570 18.44539 33932 ft 433 kts 308°
2026-05-05 15:09 46.63501 18.37887 33941 ft 433 kts 308°
2026-05-05 15:10 46.67430 18.31235 33935 ft 434 kts 308°
2026-05-05 15:10 46.71361 18.24569 33943 ft 434 kts 308°
2026-05-05 15:11 46.75254 18.17930 33944 ft 434 kts 308°
2026-05-05 15:11 46.79177 18.11241 33949 ft 434 kts 308°
2026-05-05 15:12 46.83095 18.04538 33957 ft 434 kts 308°
2026-05-05 15:12 46.87002 17.97831 33956 ft 433 kts 307°
2026-05-05 15:13 46.90902 17.91109 33956 ft 433 kts 307°
2026-05-05 15:13 46.94777 17.84430 33961 ft 434 kts 307°
2026-05-05 15:14 46.98685 17.77678 33934 ft 435 kts 307°
2026-05-05 15:14 47.02594 17.70889 33927 ft 437 kts 307°
2026-05-05 15:15 47.06516 17.64080 33927 ft 437 kts 307°
2026-05-05 15:15 47.10448 17.57264 33936 ft 438 kts 307°
2026-05-05 15:16 47.14351 17.50473 33937 ft 438 kts 307°
2026-05-05 15:16 47.18272 17.43601 33930 ft 439 kts 306°
2026-05-05 15:17 47.22191 17.36699 33930 ft 440 kts 306°
2026-05-05 15:17 47.26118 17.29789 33932 ft 440 kts 306°
2026-05-05 15:18 47.30021 17.22919 33936 ft 440 kts 306°
2026-05-05 15:18 47.33952 17.15984 33925 ft 441 kts 306°
2026-05-05 15:19 47.37875 17.09043 33927 ft 440 kts 306°
2026-05-05 15:19 47.41782 17.02092 33909 ft 439 kts 306°
2026-05-05 15:20 47.45654 16.95188 33904 ft 439 kts 306°
2026-05-05 15:20 47.49543 16.88238 33895 ft 439 kts 306°
2026-05-05 15:21 47.53434 16.81278 33885 ft 439 kts 306°
2026-05-05 15:21 47.56972 16.73975 33885 ft 433 kts 294°
2026-05-05 15:22 47.59251 16.65826 33881 ft 431 kts 288°
2026-05-05 15:22 47.61422 16.57558 33872 ft 430 kts 288°
2026-05-05 15:23 47.63588 16.49284 33864 ft 431 kts 288°
2026-05-05 15:23 47.65749 16.40985 33845 ft 432 kts 288°
2026-05-05 15:24 47.67912 16.32682 33837 ft 432 kts 288°
2026-05-05 15:24 47.70051 16.24424 33843 ft 431 kts 288°
2026-05-05 15:25 47.72198 16.16121 33838 ft 431 kts 288°
2026-05-05 15:25 47.74346 16.07787 33820 ft 433 kts 288°
2026-05-05 15:26 47.76498 15.99410 33818 ft 434 kts 288°
2026-05-05 15:26 47.78632 15.91069 33831 ft 435 kts 287°
2026-05-05 15:27 47.80777 15.82667 33831 ft 435 kts 288°
2026-05-05 15:27 47.82908 15.74243 33809 ft 436 kts 288°
2026-05-05 15:28 47.85038 15.65780 33807 ft 437 kts 286°
2026-05-05 15:28 47.87159 15.57370 33809 ft 437 kts 286°
2026-05-05 15:29 47.89291 15.48904 33803 ft 436 kts 287°
2026-05-05 15:29 47.91412 15.40429 33808 ft 437 kts 287°
2026-05-05 15:30 47.93524 15.31919 33782 ft 438 kts 287°
2026-05-05 15:30 47.95617 15.23442 33777 ft 439 kts 287°
2026-05-05 15:31 47.97729 15.14889 33782 ft 439 kts 287°
2026-05-05 15:31 47.99842 15.06324 33775 ft 440 kts 287°
2026-05-05 15:32 48.01947 14.97746 33787 ft 440 kts 287°
2026-05-05 15:32 48.04039 14.89162 33773 ft 440 kts 287°
2026-05-05 15:33 48.05300 14.80384 33766 ft 433 kts 270°
2026-05-05 15:33 48.05190 14.71409 33759 ft 432 kts 266°
2026-05-05 15:34 48.05018 14.62436 33765 ft 432 kts 266°
2026-05-05 15:34 48.04843 14.53457 33766 ft 433 kts 266°
2026-05-05 15:35 48.04655 14.44526 33759 ft 433 kts 266°
2026-05-05 15:35 48.04456 14.35529 33756 ft 433 kts 266°
2026-05-05 15:36 48.04254 14.26537 33755 ft 433 kts 266°
2026-05-05 15:36 48.04044 14.17537 33756 ft 433 kts 266°
2026-05-05 15:37 48.03821 14.08533 33771 ft 434 kts 266°
2026-05-05 15:37 48.03604 13.99586 33775 ft 434 kts 266°
2026-05-05 15:38 48.03380 13.90579 33773 ft 434 kts 265°
2026-05-05 15:38 48.03139 13.81564 33773 ft 434 kts 265°
2026-05-05 15:39 48.02885 13.72550 33769 ft 434 kts 265°
2026-05-05 15:39 48.02631 13.63595 33779 ft 435 kts 265°
2026-05-05 15:40 48.02369 13.54567 33778 ft 435 kts 265°
2026-05-05 15:40 48.02100 13.45539 33780 ft 435 kts 265°
2026-05-05 15:41 48.01823 13.36502 33776 ft 435 kts 265°
2026-05-05 15:41 48.01543 13.27533 33785 ft 435 kts 265°
2026-05-05 15:42 48.01253 13.18505 33780 ft 435 kts 265°
2026-05-05 15:42 48.00959 13.09502 33777 ft 434 kts 265°
2026-05-05 15:43 48.00652 13.00502 33774 ft 434 kts 264°
2026-05-05 15:43 48.00389 12.91495 33770 ft 435 kts 269°
2026-05-05 15:44 48.01384 12.82619 33800 ft 440 kts 281°
2026-05-05 15:44 48.02893 12.73769 33793 ft 440 kts 280°
2026-05-05 15:45 48.04382 12.64915 33772 ft 439 kts 280°
2026-05-05 15:45 48.05880 12.56070 33772 ft 440 kts 283°
2026-05-05 15:46 48.07890 12.47492 33783 ft 442 kts 285°
2026-05-05 15:46 48.09942 12.38787 33780 ft 442 kts 285°
2026-05-05 15:47 48.11977 12.30112 33797 ft 442 kts 285°
2026-05-05 15:47 48.13990 12.21466 33796 ft 442 kts 285°
2026-05-05 15:48 48.15882 12.12736 33809 ft 438 kts 278°
2026-05-05 15:48 48.16617 12.03798 33815 ft 435 kts 272°
2026-05-05 15:49 48.17201 11.94773 33823 ft 436 kts 272°
2026-05-05 15:49 48.17784 11.85727 33825 ft 436 kts 272°
2026-05-05 15:50 48.18862 11.76749 33827 ft 441 kts 280°
2026-05-05 15:50 48.20357 11.67823 33830 ft 442 kts 280°
2026-05-05 15:51 48.21823 11.58949 33842 ft 442 kts 279°
2026-05-05 15:51 48.23279 11.50028 33794 ft 443 kts 279°
2026-05-05 15:51 48.24010 11.45540 33371 ft 443 kts 279°
2026-05-05 15:52 48.24743 11.41042 32965 ft 444 kts 279°
2026-05-05 15:52 48.25542 11.36550 32568 ft 449 kts 284°
2026-05-05 15:52 48.26771 11.32207 32166 ft 457 kts 294°
2026-05-05 15:52 48.28409 11.28324 31792 ft 464 kts 303°
2026-05-05 15:53 48.30568 11.24668 31413 ft 471 kts 311°
2026-05-05 15:53 48.32868 11.21140 31023 ft 475 kts 310°
2026-05-05 15:53 48.35180 11.17567 30529 ft 478 kts 310°
2026-05-05 15:53 48.37435 11.14063 30060 ft 481 kts 311°
2026-05-05 15:54 48.39770 11.10431 29523 ft 485 kts 311°
2026-05-05 15:54 48.42104 11.06799 28957 ft 486 kts 311°
2026-05-05 15:54 48.44372 11.03265 28435 ft 487 kts 311°
2026-05-05 15:54 48.46693 10.99640 27903 ft 488 kts 311°
2026-05-05 15:55 48.49050 10.95957 27375 ft 488 kts 311°
2026-05-05 15:55 48.51397 10.92266 26853 ft 488 kts 310°
2026-05-05 15:55 48.53736 10.88545 26328 ft 488 kts 310°
2026-05-05 15:55 48.56065 10.84809 25872 ft 488 kts 310°
2026-05-05 15:56 48.58384 10.81068 25357 ft 489 kts 311°
2026-05-05 15:56 48.60715 10.77313 24883 ft 490 kts 311°
2026-05-05 15:56 48.63058 10.73565 24391 ft 491 kts 311°
2026-05-05 15:56 48.65381 10.69872 23497 ft 492 kts 311°
2026-05-05 15:57 48.67745 10.66131 22595 ft 489 kts 311°
2026-05-05 15:57 48.69903 10.62218 21825 ft 479 kts 301°
2026-05-05 15:57 48.71459 10.57908 20420 ft 458 kts 289°
2026-05-05 15:57 48.72309 10.53354 18886 ft 442 kts 276°
2026-05-05 15:58 48.72605 10.48806 17542 ft 426 kts 274°
2026-05-05 15:58 48.73103 10.44466 16164 ft 412 kts 279°
2026-05-05 15:58 48.73665 10.40328 14823 ft 402 kts 279°
2026-05-05 15:58 48.74224 10.36228 13539 ft 393 kts 279°
2026-05-05 15:59 48.74773 10.32214 12132 ft 384 kts 279°
2026-05-05 15:59 48.75323 10.28303 10757 ft 376 kts 279°
2026-05-05 15:59 48.75879 10.24480 9701 ft 363 kts 279°
2026-05-05 15:59 48.76421 10.20891 9217 ft 334 kts 279°
2026-05-05 16:00 48.76924 10.17628 9018 ft 302 kts 279°
2026-05-05 16:00 48.77392 10.14670 8870 ft 275 kts 279°
2026-05-05 16:00 48.77837 10.11897 8854 ft 276 kts 279°
2026-05-05 16:00 48.78274 10.09065 8848 ft 275 kts 276°
2026-05-05 16:01 48.78481 10.06192 8688 ft 274 kts 270°
2026-05-05 16:01 48.78578 10.03333 8429 ft 269 kts 269°
2026-05-05 16:01 48.78657 10.00510 8175 ft 268 kts 269°
2026-05-05 16:01 48.78732 9.97693 7923 ft 267 kts 269°
2026-05-05 16:02 48.78806 9.94882 7795 ft 267 kts 269°
2026-05-05 16:02 48.78876 9.92068 7670 ft 267 kts 269°
2026-05-05 16:02 48.78940 9.89301 7548 ft 266 kts 269°
2026-05-05 16:02 48.79008 9.86505 7422 ft 266 kts 269°
2026-05-05 16:03 48.79075 9.83699 7296 ft 266 kts 269°
2026-05-05 16:03 48.79139 9.80899 7171 ft 265 kts 269°
2026-05-05 16:03 48.79193 9.78107 7043 ft 264 kts 265°
2026-05-05 16:03 48.78933 9.75371 6928 ft 262 kts 254°
2026-05-05 16:04 48.78443 9.72723 6807 ft 261 kts 252°
2026-05-05 16:04 48.77934 9.70082 6684 ft 261 kts 252°
2026-05-05 16:04 48.77446 9.67452 6560 ft 255 kts 252°
2026-05-05 16:04 48.76979 9.64918 6453 ft 244 kts 252°
2026-05-05 16:05 48.76528 9.62479 6275 ft 238 kts 252°
2026-05-05 16:05 48.76088 9.60105 5988 ft 237 kts 252°
2026-05-05 16:05 48.75640 9.57694 5676 ft 239 kts 252°
2026-05-05 16:05 48.75190 9.55273 5351 ft 238 kts 252°
2026-05-05 16:06 48.74742 9.52861 5040 ft 237 kts 252°
2026-05-05 16:06 48.74296 9.50467 4745 ft 233 kts 253°
2026-05-05 16:06 48.73859 9.48123 4409 ft 229 kts 253°
2026-05-05 16:06 48.73429 9.45822 4103 ft 225 kts 252°
2026-05-05 16:07 48.73006 9.43559 3817 ft 221 kts 253°
2026-05-05 16:07 48.72599 9.41384 3512 ft 213 kts 253°
2026-05-05 16:07 48.72211 9.39310 3256 ft 198 kts 254°
2026-05-05 16:07 48.71842 9.37347 2975 ft 191 kts 254°
2026-05-05 16:08 48.71495 9.35497 2747 ft 173 kts 254°
2026-05-05 16:08 48.71173 9.33784 2507 ft 165 kts 254°
2026-05-05 16:08 48.70862 9.32134 2293 ft 159 kts 254°
2026-05-05 16:08 48.70569 9.30577 2072 ft 151 kts 254°
2026-05-05 16:09 48.70282 9.29056 1860 ft 150 kts 255°
2026-05-05 16:09 48.69996 9.27540 1673 ft 150 kts 255°
2026-05-05 16:09 48.69712 9.26022 1461 ft 150 kts 255°
2026-05-05 16:09 48.69425 9.24532 1304 ft 149 kts 256°
2026-05-05 16:10 48.69147 9.23049 1219 ft 136 kts 254°
2026-05-05 16:10 48.68936 9.21899 1246 ft 89 kts 254°
2026-05-05 16:10 48.68820 9.21287 1262 ft 39 kts 257°
2026-05-05 16:10 48.68837 9.20959 1268 ft 22 kts 284°
2026-05-05 16:11 48.68859 9.20832 1271 ft 8 kts 285°
2026-05-05 16:11 48.68864 9.20806 1272 ft 0 kts 285°
2026-05-05 16:12 48.68868 9.20783 1273 ft 6 kts 285°
2026-05-05 16:12 48.68862 9.20605 1277 ft 10 kts 253°
2026-05-05 16:13 48.68813 9.20345 1284 ft 10 kts 253°
2026-05-05 16:13 48.68791 9.20232 1287 ft 11 kts 253°
2026-05-05 16:13 48.68766 9.20105 1289 ft 13 kts 254°
2026-05-05 16:14 48.68818 9.19913 1297 ft 12 kts 323°
2026-05-05 16:14 48.68954 9.19965 1303 ft 13 kts 56°
2026-05-05 16:15 48.68923 9.20086 1298 ft 0 kts 164°